Stations météo

réclame
Mon MeteoGroup
Aldergrove, Grande-Bretagne (3917): Température de l'air & dewpoint: 13.07.2018 18:00:00 - 19.07.2018 18:00:00 (BST)Aldergrove, Grande-Bretagne (3917): Température de l'air -20cm & Température de l'air -100cm: 13.07.2018 18:00:00 - 19.07.2018 18:00:00 (BST)Aldergrove, Grande-Bretagne (3917): Vitesse du vent: 13.07.2018 18:00:00 - 19.07.2018 18:00:00 (BST)Aldergrove, Grande-Bretagne (3917): Direction du vent: 13.07.2018 18:00:00 - 19.07.2018 18:00:00 (BST)Aldergrove, Grande-Bretagne (3917): reduced air pressure: 13.07.2018 18:00:00 - 19.07.2018 18:00:00 (BST)Aldergrove, Grande-Bretagne (3917): visibility: 13.07.2018 18:00:00 - 19.07.2018 18:00:00 (BST)Aldergrove, Grande-Bretagne (3917): Ensoleillement: 13.07.2018 18:00:00 - 19.07.2018 18:00:00 (BST)Aldergrove, Grande-Bretagne (3917): Quantités de précipitations: 13.07.2018 18:00:00 - 19.07.2018 18:00:00 (BST)
Date & Time tt [°C] td [°C] tt -20cm [°C] tt -100cm [°C] ff [km/h] ff [knt] dd ppp [hPa] vv [km] sd [min] rr [mm]
19.07.2018 18:00:00 20,0 9,4 - - 13 7 WSW 1017,7 50 54 0,0
19.07.2018 17:00:00 19,2 9,3 - - 9 5 WNW 1018,1 50 42 0,0
19.07.2018 16:00:00 20,0 9,3 - - 9 5 WSW 1018,6 50 54 0,0
19.07.2018 15:00:00 19,4 8,2 - - 13 7 WSW 1019,0 50 60 0,0
19.07.2018 14:00:00 19,2 8,0 - - 13 7 SW 1019,1 50 54 0,0
19.07.2018 13:00:00 18,8 8,0 - - 9 5 SW 1019,6 50 60 0,0
19.07.2018 12:00:00 17,6 6,9 - - 8 4 W 1019,5 50 60 0,0
19.07.2018 11:00:00 16,4 8,8 - - 5 3 W 1019,9 50 42 0,0
19.07.2018 10:00:00 15,3 10,2 18,7 16,2 5 3 W 1020,1 25 54 0,0
19.07.2018 09:00:00 14,9 10,4 - - 4 2 W 1020,3 50 60 0,0
19.07.2018 08:00:00 13,7 10,7 - - 4 2 NNE 1020,2 40 60 0,0
19.07.2018 07:00:00 11,3 10,7 - - 4 2 NNE 1020,3 24 36 0,0
19.07.2018 06:00:00 9,4 8,9 - - 4 2 WNW 1020,1 17 0 0,0
19.07.2018 05:00:00 9,2 8,4 - - 2 1 NNE 1020,1 23 0 0,0
19.07.2018 04:00:00 9,6 8,3 - - 4 2 NW 1020,2 26 0 0,0
19.07.2018 03:00:00 10,3 8,2 - - 2 1 N 1020,1 30 0 0,0
19.07.2018 02:00:00 11,0 8,6 - - 4 2 NNW 1020,0 40 0 0,0
19.07.2018 01:00:00 11,6 8,7 - - 4 2 NNW 1020,0 40 - 0,0
19.07.2018 00:00:00 12,3 8,6 - - 4 2 N 1019,8 40 0 0,0
18.07.2018 23:00:00 13,1 8,5 - - 4 2 N 1019,5 45 0 0,0
18.07.2018 22:00:00 15,4 9,8 - - 5 3 NNW 1019,3 45 0 0,0
18.07.2018 21:00:00 15,9 10,8 - - 9 5 NNW 1018,7 35 0 0,0
18.07.2018 20:00:00 17,0 11,1 - - 15 8 NNW 1018,1 45 0 0,0
18.07.2018 19:00:00 19,4 10,7 - - 8 4 NW 1017,7 40 42 0,0
18.07.2018 18:00:00 20,8 10,3 - - 4 2 WNW 1017,6 50 54 0,0
18.07.2018 17:00:00 20,8 10,1 - - 8 4 WNW 1017,5 40 54 0,0
18.07.2018 16:00:00 19,9 9,2 - - 9 5 WSW 1017,5 50 12 0,0
18.07.2018 15:00:00 19,8 10,4 - - 11 6 W 1017,3 50 30 0,0
18.07.2018 14:00:00 19,3 11,3 - - 5 3 SW 1017,1 50 60 0,0
18.07.2018 13:00:00 17,5 11,8 - - 4 2 W 1017,4 45 42 0,0
18.07.2018 12:00:00 16,8 12,9 - - 8 4 W 1017,1 40 24 0,0
18.07.2018 11:00:00 15,5 12,3 - - 8 4 NW 1017,1 35 0 0,0
18.07.2018 10:00:00 14,5 12,4 18,7 16,4 8 4 W 1017,0 21 0 0,0
18.07.2018 09:00:00 14,7 12,4 - - 5 3 NNE 1016,8 19 18 0,0
18.07.2018 08:00:00 13,4 12,3 - - 2 1 NW 1016,3 18 18 0,0
18.07.2018 07:00:00 12,5 12,1 - - 5 3 E 1015,7 18 0 0,0
18.07.2018 06:00:00 11,1 10,7 - - 2 1 N 1015,3 4,8 0 0,0
18.07.2018 05:00:00 11,7 10,8 - - 4 2 N 1015,2 7 0 0,0
18.07.2018 04:00:00 12,7 11,4 - - 2 1 WNW 1015,0 21 0 0,0
18.07.2018 03:00:00 13,7 11,2 - - 2 1 S 1014,8 21 0 0,0
18.07.2018 02:00:00 15,0 12,3 - - 4 2 SSE 1014,7 35 0 0,0
18.07.2018 01:00:00 14,9 12,0 - - 2 1 S 1014,7 35 - 0,0
18.07.2018 00:00:00 14,9 12,1 - - 4 2 SSE 1014,8 35 0 0,0
17.07.2018 23:00:00 14,7 12,3 - - 8 4 SE 1014,6 35 0 0,0
17.07.2018 22:00:00 14,7 12,6 - - 9 5 S 1014,6 35 0 0,0
17.07.2018 21:00:00 15,0 11,6 - - 15 8 S 1014,4 40 0 0,0
17.07.2018 20:00:00 15,8 11,3 - - 4 2 SW 1014,0 35 0 0,0
17.07.2018 19:00:00 17,6 9,6 - - 5 3 WSW 1013,6 1,1 0 0,0
17.07.2018 18:00:00 18,0 8,8 - - 9 5 SW 1013,5 1,0 0 0,0
17.07.2018 17:00:00 18,1 8,5 - - 13 7 WSW 1013,5 1,6 12 0,0
17.07.2018 16:00:00 17,4 8,9 - - 11 6 WSW 1013,8 0,8 0 0,0
17.07.2018 15:00:00 17,5 8,8 - - 11 6 WSW 1013,8 0,9 18 0,0
17.07.2018 14:00:00 18,4 8,4 - - 9 5 SW 1013,8 1,0 54 0,0
17.07.2018 13:00:00 17,5 7,4 - - 9 5 WSW 1014,0 1,0 60 0,0
17.07.2018 12:00:00 17,3 9,1 - - 9 5 WSW 1014,0 1,4 60 0,0
17.07.2018 11:00:00 15,9 8,5 - - 8 4 SW 1014,1 1,3 36 0,0
17.07.2018 10:00:00 14,9 9,5 18,7 16,4 8 4 WSW 1014,1 30 6 0,0
17.07.2018 09:00:00 14,2 10,5 - - 11 6 W 1014,1 30 18 0,0
17.07.2018 08:00:00 13,8 10,3 - - 11 6 WSW 1013,9 30 30 0,0
17.07.2018 07:00:00 13,3 10,5 - - 13 7 WSW 1013,8 27 18 0,0
17.07.2018 06:00:00 12,6 10,7 - - 9 5 WSW 1013,4 25 0 0,0
17.07.2018 05:00:00 12,7 10,4 - - 8 4 WSW 1013,3 30 0 0,0
17.07.2018 04:00:00 13,4 10,3 - - 11 6 WSW 1013,4 40 0 0,0
17.07.2018 03:00:00 13,7 11,0 - - 8 4 WSW 1013,4 25 0 0,0
17.07.2018 02:00:00 14,2 10,6 - - 11 6 W 1013,5 40 0 0,0
17.07.2018 01:00:00 14,4 10,5 - - 9 5 W 1013,6 45 - 0,0
17.07.2018 00:00:00 14,8 11,4 - - 11 6 W 1013,6 50 0 0,0
16.07.2018 23:00:00 14,6 10,8 - - 5 3 SW 1013,5 35 0 0,0
16.07.2018 22:00:00 14,9 10,9 - - 5 3 WSW 1013,3 50 0 0,0
16.07.2018 21:00:00 15,0 11,0 - - 13 7 W 1013,2 45 0 0,0
16.07.2018 20:00:00 16,2 10,5 - - 11 6 W 1012,7 50 0 0,0
16.07.2018 19:00:00 16,8 11,2 - - 11 6 W 1012,3 50 0 0,0
16.07.2018 18:00:00 17,5 10,5 - - 11 6 WSW 1012,4 45 0 0,0
16.07.2018 17:00:00 18,5 10,3 - - 5 3 WSW 1012,2 50 6 0,0
16.07.2018 16:00:00 17,4 9,9 - - 11 6 WSW 1012,5 50 6 0,0
16.07.2018 15:00:00 17,8 10,1 - - 11 6 WSW 1012,7 50 6 0,0
16.07.2018 14:00:00 18,0 10,0 - - 11 6 SSW 1012,8 50 6 0,0
16.07.2018 13:00:00 17,3 10,9 - - 11 6 SW 1012,9 50 6 0,0
16.07.2018 12:00:00 18,0 11,6 - - 11 6 SSW 1012,9 45 42 0,0
16.07.2018 11:00:00 16,6 11,4 - - 11 6 WSW 1012,9 40 60 0,0
16.07.2018 10:00:00 15,4 11,2 19,0 16,4 13 7 W 1012,8 40 42 0,0
16.07.2018 09:00:00 15,1 11,6 - - 13 7 WSW 1012,8 40 60 0,0
16.07.2018 08:00:00 14,5 11,9 - - 13 7 WSW 1012,7 35 54 0,0
16.07.2018 07:00:00 13,6 11,9 - - 13 7 WSW 1012,6 30 0 0,0
16.07.2018 06:00:00 13,6 11,9 - - 11 6 WSW 1012,4 30 0 0,0
16.07.2018 05:00:00 13,2 11,6 - - 11 6 WSW 1012,2 29 0 0,0
16.07.2018 04:00:00 14,2 12,8 - - 11 6 WSW 1012,2 29 0 0,0
16.07.2018 03:00:00 13,9 13,1 - - 4 2 S 1012,1 35 0 0,2
16.07.2018 02:00:00 13,8 13,3 - - 5 3 W 1012,4 4,4 0 0,8
16.07.2018 01:00:00 14,1 13,4 - - 15 8 WNW 1011,9 2,3 - 1,0
16.07.2018 00:00:00 17,0 16,4 - - 11 6 S 1010,9 11 0 0,4
15.07.2018 23:00:00 17,2 16,2 - - 13 7 S 1010,7 7 0 0,4
15.07.2018 22:00:00 17,4 16,4 - - 13 7 S 1010,8 40 0 0,0
15.07.2018 21:00:00 17,5 16,4 - - 15 8 S 1010,9 40 0 0,0
15.07.2018 20:00:00 17,6 16,8 - - 18 10 SSE 1010,8 2,4 0 0,2
15.07.2018 19:00:00 18,2 17,0 - - 13 7 S 1010,9 7 0 0,0
15.07.2018 18:00:00 18,4 16,9 - - 18 10 SSE 1011,3 35 0 0,2
15.07.2018 17:00:00 18,3 16,9 - - 16 9 S 1011,6 40 0 0,0
15.07.2018 16:00:00 18,3 17,1 - - 16 9 S 1012,0 20 0 1,4
15.07.2018 15:00:00 17,9 16,7 - - 13 7 S 1012,2 8 0 0,4
15.07.2018 14:00:00 17,6 16,5 - - 16 9 S 1012,4 6 0 0,4
15.07.2018 13:00:00 17,4 16,6 - - 15 8 S 1012,7 18 0 0,6
15.07.2018 12:00:00 17,1 16,6 - - 15 8 S 1012,8 2,9 0 0,8
15.07.2018 11:00:00 17,1 16,3 - - 16 9 S 1012,8 5 0 0,4
15.07.2018 10:00:00 17,0 16,3 19,4 16,4 15 8 S 1012,8 6 0 0,4
15.07.2018 09:00:00 16,8 16,1 - - 15 8 S 1013,0 12 0 0,0
15.07.2018 08:00:00 16,6 16,1 - - 16 9 S 1013,0 20 0 0,6
15.07.2018 07:00:00 16,4 15,9 - - 16 9 S 1012,9 8 0 1,4
15.07.2018 06:00:00 16,3 15,9 - - 15 8 S 1012,9 4,0 0 2,0
15.07.2018 05:00:00 16,5 16,1 - - 13 7 S 1013,2 2,2 0 1,6
15.07.2018 04:00:00 16,5 16,0 - - 13 7 S 1013,5 2,6 0 1,0
15.07.2018 03:00:00 16,9 16,0 - - 15 8 SSW 1013,8 3,2 0 0,0
15.07.2018 02:00:00 17,7 15,5 - - 13 7 SSW 1014,0 35 0 0,0
15.07.2018 01:00:00 18,5 15,2 - - 13 7 SW 1014,3 45 - 0,0
15.07.2018 00:00:00 19,2 14,8 - - 11 6 SW 1014,5 50 0 0,0
14.07.2018 23:00:00 19,4 14,8 - - 11 6 S 1014,6 50 0 0,0
14.07.2018 22:00:00 19,4 14,7 - - 13 7 SSW 1014,8 45 0 0,0
14.07.2018 21:00:00 19,7 15,0 - - 8 4 SW 1014,9 50 0 0,0
14.07.2018 20:00:00 20,4 15,3 - - 16 9 WSW 1015,0 45 6 0,0
14.07.2018 19:00:00 21,6 15,5 - - 15 8 SW 1015,0 50 0 0,0
14.07.2018 18:00:00 20,8 15,1 - - 18 10 WSW 1015,3 45 0 0,0
14.07.2018 17:00:00 21,6 15,0 - - 21 11 WSW 1015,4 50 0 0,0
14.07.2018 16:00:00 22,1 14,3 - - 18 10 WSW 1015,7 50 0 0,0
14.07.2018 15:00:00 23,0 13,6 - - 21 11 SW 1015,9 50 54 0,0
14.07.2018 14:00:00 22,4 13,2 - - 16 9 WSW 1016,5 50 60 0,0
14.07.2018 13:00:00 22,1 12,3 - - 18 10 SW 1017,1 50 60 0,0
14.07.2018 12:00:00 20,6 12,0 - - 18 10 SSW 1017,5 50 60 0,0
14.07.2018 11:00:00 19,0 12,0 - - 18 10 SW 1017,8 50 60 0,0
14.07.2018 10:00:00 18,1 12,1 19,2 16,4 13 7 SSW 1018,1 45 48 0,0
14.07.2018 09:00:00 16,5 12,2 - - 15 8 SW 1018,3 35 48 0,0
14.07.2018 08:00:00 15,8 11,9 - - 13 7 S 1018,5 26 60 0,0
14.07.2018 07:00:00 13,9 11,6 - - 11 6 S 1018,6 17 48 0,0
14.07.2018 06:00:00 11,8 9,9 - - 4 2 NE 1019,1 19 0 0,0
14.07.2018 05:00:00 14,2 11,3 - - 9 5 SSE 1018,9 21 0 0,0
14.07.2018 04:00:00 14,2 11,4 - - 9 5 S 1019,6 24 0 0,0
14.07.2018 03:00:00 14,4 11,1 - - 8 4 SSE 1019,7 30 0 0,0
14.07.2018 02:00:00 14,9 11,1 - - 9 5 SE 1020,0 35 0 0,0
14.07.2018 01:00:00 14,8 11,4 - - 8 4 E 1020,1 40 - 0,0
14.07.2018 00:00:00 16,0 11,6 - - 5 3 E 1020,5 45 0 0,0
13.07.2018 23:00:00 16,5 11,6 - - 8 4 E 1020,7 50 0 0,0
13.07.2018 22:00:00 17,1 11,3 - - 13 7 E 1020,7 50 0 0,0
13.07.2018 21:00:00 17,7 11,2 - - 11 6 E 1020,4 50 0 0,0
13.07.2018 20:00:00 18,4 11,5 - - 8 4 NNE 1020,5 50 0 0,0
13.07.2018 19:00:00 19,5 11,2 - - 8 4 W 1020,7 50 36 0,0
13.07.2018 18:00:00 21,4 11,7 - - 11 6 W 1020,7 50 60 0,0

tt = Température de l'air
td = dewpoint
tt -20cm = Température de l'air -20cm
tt -100cm = Température de l'air -100cm
ff = Vitesse du vent
dd = Direction du vent
ppp = reduced air pressure
vv = visibility
sd = Ensoleillement
rr = Quantités de précipitations

stations d'obs. à proximité